Location: Newark
(49.8969°N, 3.3422°E)
Time: 11:52:56
(UTC+00:00)

Vanguard 1 Rocket - Pass Details

Date: 28 January 2020
Orbit: 650 x 4226 km, 34.3° (Epoch: 19 February)

Event Time Altitude Azimuth Distance (km) Brightness Sun altitude
Rises 08:44:55 0° 217° (SW) 3,672 10.6 9.4°
Reaches altitude 10° 08:47:35 10° 203° (SSW) 3,034 10.4 9.8°
Maximum altitude 08:53:34 25° 151° (SSE) 2,790 11.5 10.4°
Drops below altitude 10° 09:03:01 10° 103° (ESE) 4,983 12.2 11.5°
Sets 09:09:05 0° 93° (E) 6,680 12.5 12.1°
